| time (UTC) | temp F | wind direction | speed knots | gust knots | rain 1hr in | rain 24hr in | rain mn in | humidity % | barometer mb |
| 20260503200047 | 54 | 231 | 8.7 | 18.2 | 0.00 | 0.00 | 0.00 | 40 | 1013.2 |
| 20260503194523 | 54 | 272 | 7.8 | 15.6 | 0.00 | 0.00 | 0.00 | 41 | 1013.3 |
| 20260503193049 | 55 | 295 | 9.6 | 17.4 | 0.00 | 0.00 | 0.00 | 38 | 1013.5 |
| 20260503191530 | 53 | 262 | 9.6 | 20.0 | 0.00 | 0.00 | 0.00 | 42 | 1013.7 |
| 20260503190011 | 54 | 275 | 11.3 | 18.2 | 0.00 | 0.00 | 0.00 | 41 | 1013.9 |
| 20260503184543 | 52 | 264 | 6.1 | 15.6 | 0.00 | 0.00 | 0.00 | 41 | 1013.9 |
| 20260503183016 | 53 | 273 | 8.7 | 14.8 | 0.00 | 0.00 | 0.00 | 42 | 1014.1 |
| 20260503181538 | 53 | 257 | 7.0 | 16.5 | 0.00 | 0.00 | 0.00 | 42 | 1014.2 |
| 20260503180020 | 52 | 269 | 7.0 | 17.4 | 0.00 | 0.00 | 0.00 | 46 | 1014.2 |
| 20260503174556 | 52 | 266 | 6.1 | 13.0 | 0.00 | 0.00 | 0.00 | 45 | 1014.4 |
| 20260503173023 | 51 | 258 | 9.6 | 15.6 | 0.00 | 0.00 | 0.00 | 46 | 1014.4 |
| 20260503171557 | 51 | 275 | 8.7 | 16.5 | 0.00 | 0.00 | 0.00 | 43 | 1014.6 |
| 20260503081513 | 35 | 235 | 0.9 | 6.1 | 0.00 | 0.00 | 0.00 | 73 | 1014.6 |
| 20260503071521 | 35 | 293 | 4.3 | 7.8 | 0.00 | 0.00 | 0.00 | 72 | 1014.2 |
| 20260503070113 | 36 | 289 | 2.6 | 8.7 | 0.00 | 0.00 | 0.00 | 72 | 1014.2 |
| 20260503054546 | 37 | 280 | 3.5 | 7.0 | 0.00 | 0.01 | 0.00 | 68 | 1014.3 |
| 20260503053022 | 37 | 278 | 0.9 | 4.3 | 0.00 | 0.01 | 0.00 | 69 | 1014.3 |
| 20260503051548 | 38 | 279 | 1.7 | 3.5 | 0.00 | 0.01 | 0.00 | 67 | 1014.4 |
| 20260503050024 | 38 | 274 | 4.3 | 8.7 | 0.00 | 0.02 | 0.00 | 65 | 1014.5 |
| 20260503044544 | 38 | 275 | 6.1 | 10.4 | 0.00 | 0.02 | 0.00 | 66 | 1014.4 |
| 20260503043023 | 39 | 287 | 4.3 | 7.8 | 0.00 | 0.02 | 0.00 | 66 | 1014.4 |
| 20260503041545 | 39 | 290 | 3.5 | 6.1 | 0.00 | 0.02 | 0.00 | 65 | 1014.4 |
| 20260503040043 | 39 | 264 | 0.0 | 3.5 | 0.00 | 0.15 | 0.02 | 66 | 1014.4 |
| 20260503034514 | 39 | 236 | 0.9 | 4.3 | 0.00 | 0.15 | 0.02 | 67 | 1014.5 |
| 20260503033040 | 39 | 249 | 3.5 | 7.0 | 0.00 | 0.15 | 0.02 | 66 | 1014.6 |
| 20260503031600 | 39 | 239 | 0.9 | 5.2 | 0.00 | 0.15 | 0.02 | 68 | 1014.7 |
| 20260503030035 | 40 | 275 | 1.7 | 8.7 | 0.00 | 0.16 | 0.02 | 69 | 1014.8 |
| 20260503024510 | 40 | 280 | 5.2 | 9.6 | 0.00 | 0.16 | 0.02 | 69 | 1014.8 |
| 20260503023055 | 40 | 255 | 3.5 | 7.0 | 0.00 | 0.16 | 0.02 | 71 | 1014.9 |
| 20260503021525 | 40 | 252 | 1.7 | 7.0 | 0.00 | 0.16 | 0.02 | 71 | 1015.0 |
| 20260503020012 | 40 | 255 | 1.7 | 8.7 | 0.00 | 0.16 | 0.02 | 70 | 1014.9 |
| 20260503014547 | 40 | 222 | 2.6 | 6.1 | 0.00 | 0.16 | 0.02 | 70 | 1014.7 |
| 20260503013014 | 40 | 249 | 3.5 | 5.2 | 0.00 | 0.16 | 0.02 | 74 | 1014.7 |
| 20260503011537 | 40 | 265 | 3.5 | 6.1 | 0.00 | 0.16 | 0.02 | 77 | 1014.7 |
| 20260503010011 | 40 | 250 | 2.6 | 6.1 | 0.00 | 0.17 | 0.02 | 79 | 1014.4 |
| 20260503004533 | 40 | 251 | 1.7 | 5.2 | 0.00 | 0.17 | 0.02 | 78 | 1014.3 |
| 20260503003012 | 40 | 273 | 1.7 | 9.6 | 0.00 | 0.17 | 0.02 | 75 | 1014.0 |
| 20260503001532 | 41 | 257 | 5.2 | 9.6 | 0.00 | 0.17 | 0.02 | 78 | 1014.1 |
| 20260503000014 | 41 | 231 | 1.7 | 4.3 | 0.00 | 0.17 | 0.02 | 78 | 1014.0 |
| 20260502234538 | 41 | 248 | 3.5 | 7.0 | 0.00 | 0.17 | 0.02 | 76 | 1013.9 |
| 20260502233019 | 42 | 243 | 1.7 | 7.0 | 0.00 | 0.17 | 0.02 | 75 | 1013.8 |
| 20260502231505 | 42 | 274 | 2.6 | 6.1 | 0.00 | 0.17 | 0.02 | 74 | 1013.7 |
| 20260502230028 | 42 | 284 | 2.6 | 8.7 | 0.00 | 0.17 | 0.02 | 73 | 1013.7 |
| 20260502224515 | 42 | 281 | 2.6 | 8.7 | 0.00 | 0.17 | 0.02 | 73 | 1013.6 |
| 20260502223056 | 43 | 277 | 2.6 | 6.1 | 0.00 | 0.17 | 0.02 | 73 | 1013.5 |
| 20260502221521 | 43 | 300 | 5.2 | 9.6 | 0.00 | 0.17 | 0.02 | 71 | 1013.4 |
| 20260502220056 | 43 | 269 | 5.2 | 7.8 | 0.00 | 0.19 | 0.02 | 72 | 1013.4 |
| 20260502214613 | 43 | 272 | 3.5 | 6.1 | 0.00 | 0.19 | 0.02 | 75 | 1013.4 |
| 20260502213012 | 43 | 355 | 0.9 | 5.2 | 0.00 | 0.19 | 0.02 | 79 | 1013.4 |
| 20260502211536 | 42 | 288 | 4.3 | 7.0 | 0.00 | 0.19 | 0.02 | 78 | 1013.3 |
| 20260502210028 | 42 | 264 | 4.3 | 7.0 | 0.00 | 0.22 | 0.02 | 78 | 1013.2 |
| 20260502204543 | 42 | 278 | 1.7 | 3.5 | 0.00 | 0.22 | 0.02 | 79 | 1013.3 |
| 20260502203020 | 42 | 285 | 6.1 | 9.6 | 0.00 | 0.22 | 0.02 | 76 | 1013.3 |
| 20260502201620 | 42 | 277 | 4.3 | 7.8 | 0.00 | 0.22 | 0.02 | 75 | 1013.4 |
| 20260502201501 | 43 | 278 | 4.3 | 9.6 | 0.00 | 0.22 | 0.02 | 76 | 1013.4 |